Kremmling, CO

6:48 AM MST on November 14, 2019 (GMT -0700)
Kremmling

Weather History for K20V - September, 2019

Change the Weather History Date:

Tuesday, September 10, 2019

  Actual Average Record
Temperature  
Mean Temperature 56 °F -  
Max Temperature 79 °F - 86 °F (2017)
Min Temperature 33 °F - 23 °F (2016)
Degree Days  
Heating Degree Days 9    
Month to date heating degree days 35  
Cooling Degree Days 0    
Month to date cooling degree days 4  
Growing Degree Days 6 (Base 50)    
Moisture  
Dew Point 37 °F    
Average Humidity 60    
Maximum Humidity 100    
Minimum Humidity 18    
Precipitation  
Precipitation 0.00 in - 0.51 in (2003)
Snow  
Snow 0.00 in - - ()
Snow Depth 0.00 in    
Sea Level Pressure  
Sea Level Pressure 30.15 in    
Wind  
Wind Speed 2 mph ()    
Max Wind Speed 24 mph    
Max Gust Speed 32 mph    
Visibility 10.0 miles    
Events Rain , Thunderstorm    
T = Trace of Precipitation, MM = Missing Value Source: Averaged Metar Reports

Daily Weather History Graph

Daily Weather History Graph

Search for Another Location

Airport or City:

Astronomy

Sep. 10, 2019 Rise Set
Actual Time 6:41 AM MDT 7:22 PM MDT
Civil Twilight 6:14 AM MDT 7:50 PM MDT
Nautical Twilight 5:41 AM MDT 8:22 PM MDT
Astronomical Twilight 5:08 AM MDT 8:55 PM MDT
Moon 6:00 PM MDT (9/10) 3:10 AM MDT (9/10)
Length of Visible Light 13h 35m
Length of Day
12h 41m
Waxing Gibbous, 90% of the Moon is Illuminated
Sep 10
Waxing Gibbous
Sep 13
Full
Sep 21
Last Quarter
Sep 28
New
Oct 5
First Quarter

Hourly Weather History & Observations

Time (MDT) Temp. Dew Point Humidity Pressure Visibility Wind Dir Wind Speed Gust Speed Precip Events Conditions
12:06 AM 42.8 °F 37.4 °F 81% 30.18 in 10.0 mi Calm Calm - N/A   Clear
12:30 AM 41.0 °F 37.4 °F 87% 30.18 in 10.0 mi Calm Calm - N/A   Clear
12:47 AM 41.0 °F 37.4 °F 87% 30.18 in 10.0 mi Calm Calm - N/A   Clear
1:06 AM 41.0 °F 37.4 °F 87% 30.18 in 10.0 mi Calm Calm - N/A   Clear
1:30 AM 41.0 °F 37.4 °F 87% 30.18 in 10.0 mi Calm Calm - N/A   Clear
1:48 AM 41.0 °F 37.4 °F 87% 30.18 in 10.0 mi Calm Calm - N/A   Clear
2:06 AM 39.2 °F 35.6 °F 87% 30.17 in 10.0 mi Calm Calm - N/A   Clear
2:30 AM 39.2 °F 35.6 °F 87% 30.17 in 10.0 mi Calm Calm - N/A   Clear
2:48 AM 41.0 °F 37.4 °F 87% 30.17 in 10.0 mi Calm Calm - N/A   Clear
3:06 AM 39.2 °F 35.6 °F 87% 30.17 in 10.0 mi Calm Calm - N/A   Clear
3:30 AM 37.4 °F 35.6 °F 93% 30.18 in 10.0 mi Calm Calm - N/A   Clear
3:48 AM 37.4 °F 35.6 °F 93% 30.18 in 10.0 mi Calm Calm - N/A   Clear
4:06 AM 37.4 °F 35.6 °F 93% 30.18 in 10.0 mi Calm Calm - N/A   Clear
4:30 AM 37.4 °F 35.6 °F 93% 30.19 in 10.0 mi Calm Calm - N/A   Clear
4:48 AM 35.6 °F 35.6 °F 100% 30.19 in 10.0 mi Calm Calm - N/A   Clear
5:06 AM 37.4 °F 35.6 °F 93% 30.18 in 10.0 mi Calm Calm - N/A   Clear
5:30 AM 35.6 °F 35.6 °F 100% 30.18 in 10.0 mi Calm Calm - N/A   Clear
5:48 AM 35.6 °F 35.6 °F 100% 30.19 in 10.0 mi Calm Calm - N/A   Clear
6:08 AM 35.6 °F 35.6 °F 100% 30.19 in 10.0 mi Calm Calm - N/A   Clear
6:26 AM 33.8 °F 33.8 °F 100% 30.19 in 10.0 mi Calm Calm - N/A   Clear
6:49 AM 35.6 °F 35.6 °F 100% 30.19 in 10.0 mi Calm Calm - N/A   Scattered Clouds
7:06 AM 33.8 °F 33.8 °F 100% 30.20 in 10.0 mi Calm Calm - N/A   Scattered Clouds
7:30 AM 35.6 °F 35.6 °F 100% 30.20 in 10.0 mi Calm Calm - N/A   Scattered Clouds
7:48 AM 37.4 °F 37.4 °F 100% 30.20 in 10.0 mi Calm Calm - N/A   Clear
8:06 AM 39.2 °F 35.6 °F 87% 30.20 in 10.0 mi Calm Calm - N/A   Clear
8:30 AM 41.0 °F 35.6 °F 81% 30.19 in 10.0 mi Calm Calm - N/A   Clear
8:48 AM 42.8 °F 37.4 °F 81% 30.19 in 10.0 mi Calm Calm - N/A   Clear
9:06 AM 44.6 °F 37.4 °F 76% 30.19 in 10.0 mi Calm Calm - N/A   Clear
9:30 AM 48.2 °F 37.4 °F 66% 30.19 in 10.0 mi Calm Calm - N/A   Clear
9:47 AM 53.6 °F 41.0 °F 62% 30.18 in 10.0 mi Calm Calm - N/A   Clear
10:06 AM 55.4 °F 39.2 °F 54% 30.17 in 10.0 mi Calm Calm - N/A   Clear
10:30 AM 59.0 °F 41.0 °F 51% 30.16 in 10.0 mi Calm Calm - N/A   Clear
10:48 AM 59.0 °F 41.0 °F 51% 30.16 in 10.0 mi Calm Calm - N/A   Clear
11:06 AM 60.8 °F 41.0 °F 48% 30.15 in 10.0 mi Calm Calm - N/A   Clear
11:30 AM 64.4 °F 41.0 °F 42% 30.14 in 10.0 mi Calm Calm - N/A   Clear
11:48 AM 68.0 °F 41.0 °F 37% 30.14 in 10.0 mi West 5.8 mph - N/A   Clear
12:06 PM 69.8 °F 37.4 °F 31% 30.12 in 10.0 mi West 12.7 mph - N/A   Clear
12:30 PM 73.4 °F 35.6 °F 25% 30.12 in 10.0 mi West 11.5 mph 17.3 mph N/A   Clear
12:48 PM 73.4 °F 35.6 °F 25% 30.11 in 10.0 mi West 15.0 mph 23.0 mph N/A   Clear
1:06 PM 73.4 °F 35.6 °F 25% 30.11 in 10.0 mi West 6.9 mph 21.9 mph N/A   Clear
1:30 PM 75.2 °F 35.6 °F 24% 30.11 in 10.0 mi West 15.0 mph 25.3 mph N/A   Clear
1:48 PM 75.2 °F 33.8 °F 22% 30.09 in 10.0 mi WSW 9.2 mph 24.2 mph N/A   Clear
2:06 PM 75.2 °F 32.0 °F 21% 30.09 in 10.0 mi West 10.4 mph - N/A   Clear
2:30 PM 75.2 °F 33.8 °F 22% 30.09 in 10.0 mi West 12.7 mph 23.0 mph N/A   Clear
2:48 PM 78.8 °F 32.0 °F 18% 30.09 in 10.0 mi WSW 24.2 mph 32.2 mph N/A   Clear
3:06 PM 75.2 °F 30.2 °F 19% 30.08 in 10.0 mi WSW 17.3 mph 26.5 mph N/A   Clear
3:30 PM 75.2 °F 32.0 °F 21% 30.08 in 10.0 mi West 19.6 mph 28.8 mph N/A   Clear
3:48 PM 75.2 °F 32.0 °F 21% 30.08 in 10.0 mi West 10.4 mph - N/A   Clear
4:06 PM 73.4 °F 33.8 °F 23% 30.09 in 10.0 mi West 10.4 mph 18.4 mph N/A   Clear
4:30 PM 69.8 °F 37.4 °F 31% 30.08 in 10.0 mi NNW 13.8 mph 18.4 mph N/A   Scattered Clouds
4:48 PM 69.8 °F 35.6 °F 28% 30.09 in 10.0 mi Calm Calm - N/A   Scattered Clouds
5:06 PM 68.0 °F 37.4 °F 33% 30.10 in 10.0 mi NW 6.9 mph - N/A   Clear
5:30 PM 68.0 °F 37.4 °F 33% 30.09 in 10.0 mi NNW 10.4 mph - N/A   Mostly Cloudy
5:48 PM 68.0 °F 37.4 °F 33% 30.10 in 10.0 mi NW 12.7 mph 18.4 mph N/A Thunderstorm Mostly Cloudy
6:06 PM 68.0 °F 37.4 °F 33% 30.11 in 10.0 mi NW 6.9 mph - N/A   Scattered Clouds
6:30 PM 64.4 °F 41.0 °F 42% 30.12 in 10.0 mi North 6.9 mph - N/A   Mostly Cloudy
6:48 PM 64.4 °F 39.2 °F 40% 30.13 in 10.0 mi Calm Calm - N/A   Overcast
7:06 PM 64.4 °F 39.2 °F 40% 30.10 in 10.0 mi North 4.6 mph - N/A   Overcast
7:30 PM 62.6 °F 37.4 °F 39% 30.12 in 10.0 mi NW 4.6 mph - N/A   Overcast
7:48 PM 60.8 °F 39.2 °F 45% 30.12 in 10.0 mi Calm Calm - N/A   Overcast
8:06 PM 60.8 °F 39.2 °F 45% 30.12 in 10.0 mi Calm Calm - N/A   Overcast
8:30 PM 59.0 °F 41.0 °F 51% 30.14 in 10.0 mi Calm Calm - N/A   Overcast
8:48 PM 59.0 °F 41.0 °F 51% 30.14 in 10.0 mi Calm Calm - N/A   Overcast
9:06 PM 60.8 °F 39.2 °F 45% 30.14 in 10.0 mi West 8.1 mph - N/A   Mostly Cloudy
9:30 PM 60.8 °F 39.2 °F 45% 30.16 in 10.0 mi WSW 5.8 mph - N/A   Mostly Cloudy
9:48 PM 59.0 °F 41.0 °F 51% 30.16 in 10.0 mi SW 4.6 mph - N/A   Scattered Clouds
10:06 PM 55.4 °F 41.0 °F 58% 30.17 in 10.0 mi East 3.5 mph - N/A   Scattered Clouds
10:30 PM 59.0 °F 42.8 °F 55% 30.16 in 10.0 mi East 3.5 mph - N/A Thunderstorm Mostly Cloudy
10:48 PM 55.4 °F 41.0 °F 58% 30.16 in 10.0 mi ESE 3.5 mph - N/A Thunderstorm Mostly Cloudy
11:06 PM 55.4 °F 42.8 °F 63% 30.16 in 10.0 mi East 5.8 mph - N/A   Mostly Cloudy
11:30 PM 55.4 °F 42.8 °F 63% 30.16 in 10.0 mi ESE 3.5 mph - N/A   Mostly Cloudy
11:48 PM 55.4 °F 44.6 °F 67% 30.17 in 10.0 mi Calm Calm - N/A Rain Light Rain